Regional Weather Roundup
Issued by NWS

Home | Current Version | Previous Version | Text Only | Print | Product List | Glossary On
Versions: 1 2 3 4 5 6 7 8 9 10 11 12 13 14 15 16 17 18 19 20 21 22 23 24 25 26 27 28 29 30 31 32 33 34 35 36 37 38 39 40 41 42 43 44 45 46 47 48 49 50
000
ASUS43 KOAX 232010
RWRNE

WEATHER ROUNDUP FOR NEBRASKA
NATIONAL WEATHER SERVICE OMAHA NE
300 PM CDT TUE SEP 23 2014

NOTES: SATELLITE DATA IS BEING USED TO AUGMENT CLOUD COVER ABOVE
       12000 FEET.
       "FAIR" INDICATES FEW OR NO CLOUDS BELOW 12,000 FEET WITH NO
       SIGNIFICANT WEATHER AND/OR OBSTRUCTIONS TO VISIBILITY.

  * THESE STATIONS DO NOT REPORT WEATHER SUCH AS RAIN...SNOW OR FOG.

NEZ001>004-019>022-054>056-232100-
NEBRASKA PANHANDLE

CITY           SKY/WX    TMP DP  RH WIND       PRES   REMARKS
SCOTTSBLUFF    SUNNY     84  46  26 W15G22    30.00F
ALLIANCE       SUNNY     82  45  27 NW18G24   29.98F
CHADRON        CLOUDY    74  53  48 NW6       29.96F
KIMBALL        PTSUNNY   78  42  27 W17       30.05F
SIDNEY         MOSUNNY   83  44  25 NW15G23   30.04F
$$

NEZ057>060-069>072-079>082-232100-
SOUTHWEST NEBRASKA

CITY           SKY/WX    TMP DP  RH WIND       PRES   REMARKS
NORTH PLATTE   SUNNY     82  58  43 SW12      29.95F
IMPERIAL       SUNNY     85  47  26 MISG      29.98F
LEXINGTON      SUNNY     74  62  64 S14       29.98F
MCCOOK         MOSUNNY   80  58  46 VRB6      29.97F
OGALLALA       SUNNY     84  51  31 SW8       29.97F
$$

NEZ005>010-023>029-035>040-094-232100-
NORTH CENTRAL NEBRASKA

CITY           SKY/WX    TMP DP  RH WIND       PRES   REMARKS
VALENTINE      LGT RAIN  74  58  57 S5        29.90S
AINSWORTH      PTSUNNY   74  59  59 S13       29.92S
BROKEN BOW     SUNNY     76  60  57 S12G25    29.96F
O`NEILL        CLOUDY    64  59  84 S15       29.98F
ORD            PTSUNNY   69  58  67 SE15G22   29.97F
THEDFORD       MOSUNNY   82  56  41 SW12      29.93F
$$

NEZ041-046>049-061>064-073>077-083>087-232100-
SOUTH CENTRAL NEBRASKA

CITY           SKY/WX    TMP DP  RH WIND       PRES   REMARKS
GRAND ISLAND   MOSUNNY   69  56  62 S18G25    30.03F
AURORA         CLOUDY    67  54  63 S18G26    30.03F
HASTINGS       CLOUDY    67  54  63 S15G24    30.03F
HEBRON         CLOUDY    65  55  71 SE16      30.08F
HOLDREGE       MOSUNNY   71  57  62 S10G16    30.00F
KEARNEY *      MOSUNNY   70  57  64 SE15      30.01F
YORK           CLOUDY    66  57  72 S17G24    30.06S
$$

NEZ011>018-030>034-042>045-232100-
NORTHEAST NEBRASKA

CITY           SKY/WX    TMP DP  RH WIND       PRES   REMARKS
NORFOLK        CLOUDY    63  58  83 SE15      30.04F
ALBION         CLOUDY    66  56  69 S18G25    30.01F
BLAIR          CLOUDY    68  58  70 SE10G16   30.11F
COLUMBUS *     CLOUDY    66  57  72 S12G17    30.06F
FREMONT        PTSUNNY   69  58  69 SE14      30.09F
TEKAMAH        CLOUDY    65  60  84 SE12      30.10F
WAYNE          CLOUDY    62  57  82 S16       30.07F
$$

NEZ050>053-065>068-078-088>093-232100-
SOUTHEAST NEBRASKA

CITY           SKY/WX    TMP DP  RH WIND       PRES   REMARKS
LINCOLN        CLOUDY    66  56  70 S20G28    30.10F
OMAHA EPPLEY   CLOUDY    69  54  58 S20G25    30.12F
BEATRICE       HVY RAIN  58  56  95 S13       30.13F
FALLS CITY     RAIN      66  58  75 SE9       30.14F
NEBRASKA CITY  CLOUDY    70  51  50 S16       30.14F
PLATTSMOUTH    PTSUNNY   72  52  50 SE14G20   30.12F
$$

NEZ044-045-051>053-067-232100-
OMAHA AREA

CITY           SKY/WX    TMP DP  RH WIND       PRES   REMARKS
OMAHA EPPLEY   CLOUDY    69  54  58 S20G25    30.12F
BLAIR          CLOUDY    68  58  70 SE10G16   30.11F
FREMONT        PTSUNNY   69  58  69 SE14      30.09F
MILLARD        CLOUDY    70  56  62 SE13      30.11F
OFFUTT AFB     PTSUNNY   70  58  63 SE14      30.11F
PLATTSMOUTH    PTSUNNY   72  52  50 SE14G20   30.12F
WAHOO          CLOUDY    70  55  58 S17G25    30.09F
$$


USA.gov is the U.S. government's official web portal to all federal, state and local government web resources and services.